sat.trackr.live / text

‹ back to catalog

STARLINK-33986

NORAD 63870 · 2025-094G

PAYLOAD ACTIVE UNKNOWN

§ Identity

Operator
Country
US
Launch date
2025-05-10
Launch site
AFWTR
Launch vehicle
Mass (kg)
RCS (m²)

Purposes: comms

External: N2YO · Heavens-Above · Gunter

§ Orbital elements

Epoch: 2026-05-25T03:05:07.395648Z

Period
96.11 min
Inclination
70.0022°
Eccentricity
0.0002695
Mean motion
14.98338223 rev/d
Perigee alt
570.2 km
Apogee alt
573.9 km
Semi-major
6,950.2 km
B*
2.8958e-4
RAAN
41.6987°
Arg perigee
269.8477°
Mean anomaly
90.2373°
Rev number
5,865

§ Raw data

STARLINK-339861 63870U 25094G   26145.12855782  .00003365  00000+0  28958-3 0  99912 63870  70.0022  41.6987 0002695 269.8477  90.2373 14.98338223 58658

JSON: /api/v1/satellites/63870 · /tle

For live sub-satellite position, see the globe view (requires WebGL).

§ Visibility from observer

Set your observer location to see the next 7 days of passes ≥ 10°. The values pass through the URL so the page stays shareable.

No JS? Fill the form by hand. The geolocation button needs JavaScript.